Weather in Yertarskiy

Russia / Sverdlovsk Oblast     56°47′23″N   64°17′40″E
temp.,
°C
wind,
m/s
gust,
m/s
humid.,
%
clouds,
%
prec.,
mm/h
press.,
hPa
HPBL,
m
6 march, sat
sat623:00−5wsw2595100 0.1 998180
02:00−9w4109199 0.0 999298
05:00−12w4129159 0.0 1003415
08:00−13w4128817 0.0 1005419
11:00−9wsw511858 0.0 1006653
14:00−6wsw598588 0.0 1006858
17:00−6wsw5108094 0.2 10061399
20:00−8w41089100 0.3 1008958
7 march, sun
sun723:00−13w389081 0.3 1010183
02:00−17w23920 0.0 101171
05:00−18wsw22933 0.0 101220
08:00−19ssw229357 0.0 101224
11:00−12ssw128567 0.0 1011245
14:00−8se2287100 0.1 1009456
17:00−9ene2394100 0.5 1006289
20:00−10n2496100 0.8 1004173
8 march, mon
mon823:00−11nw4894100 1.3 1004348
02:00−16wnw399587 0.1 1005230
05:00−19w369751 0.1 1008133
08:00−20wsw35980 0.0 1008132
11:00−14sw369017 0.0 1009293
14:00−11ssw4785100 0.0 1008508
17:00−10ssw51091100 0.2 1006777
20:00−9ssw41193100 0.1 1005471
9 march, tue
tue923:00−9ssw4129396 0.2 1004413
02:00−7ssw51391100 0.0 1002503
05:00−7ssw51389100 0.0 1002521
08:00−7sw41094100 0.1 1002504
11:00−5sw3691100 0.3 1002526
14:00−3w4681100 0.3 1003984
17:00−4wsw258175 0.5 1004671
20:00−7wsw4108898 0.4 1006434
10 march, wed
wed1023:00−12wsw389149 0.4 1008183
02:00−14wsw399168 0.0 1009216
05:00−17wsw389457 0.0 1010146
08:00−18wsw37951 0.0 1010178
11:00−13wsw359015 0.0 1010325
14:00−10wsw358241 0.0 1010725
17:00−11w358667 0.1 1009772
20:00−15w239697 0.0 101027